Location: Lecco
(45.8566°N, 9.3977°E)
Time: 06:09:34
(UTC+02:00)

Altair - Pass Details

Date: 18 August 2020
Orbit: 1501 x 1682 km, 47.2° (Epoch: 25 September)

Event Time Altitude Azimuth Distance (km) Brightness Sun altitude
Rises 09:59:25 0° 287° (WNW) 4,677 9.5 35.5°
Reaches altitude 10° 10:04:04 10° 268° (W) 3,669 9.1 36.3°
Maximum altitude 10:08:55 16° 235° (SW) 3,221 9.1 37.1°
Drops below altitude 10° 10:13:46 10° 202° (SSW) 3,642 9.6 37.8°
Sets 10:18:24 0° 182° (S) 4,624 10.3 38.6°
